Overview Statistics Trail Chart Weather Telemetry Raw packets
 

This is the latest recevied weather packets stored in our database for station/object W6MAF. If no packets are shown the sender has not sent any weather packets the latest 10 day(s).

<< 95 96 97 98 99 100 101 >>
Time Temp. Humidity Pressure Rain* Wind** Luminosity Snow
1787977432 25° C 23% - 0 mm 2.24 m/s, 271° - -
1787977132 25° C 23% - 0 mm 2.24 m/s, 257° - -
1787976834 25° C 22% - 0 mm 0 m/s - -
1787976536 25° C 22% - 0 mm 0 m/s - -
1787976238 25.56° C 21% - 0 mm 0 m/s - -
1787975941 25.56° C 20% - 0 mm 0 m/s - -
1787975643 26.11° C 20% - 0 mm 0 m/s - -
1787975342 26.11° C 19% - 0 mm 0 m/s - -
1787975044 26.11° C 18% - 0 mm 0 m/s - -
1787974746 26.67° C 17% - 0 mm 0 m/s - -
1787974396 27.22° C 15% - 0 mm 2.24 m/s, 252° - -
1787974151 26.67° C 17% - 0 mm 1.79 m/s, 232° - -
1787973862 26.67° C 16% - 0 mm 2.68 m/s, 253° - -
1787973553 27.22° C 75% - 0 mm 2.24 m/s, 243° - -
1787973552 27.22° C 15% - 0 mm 2.24 m/s, 243° - -
1787973255 27.22° C 15% - 0 mm 2.24 m/s, 252° - -
1787973254 27.22° C 15% - 0 mm 2.24 m/s, 252° - -
1787972956 27.78° C 14% - 0 mm 1.79 m/s, 191° - -
1787972361 27.78° C 12% - 0 mm 0.89 m/s, 221° - -
1787972063 28.33° C 12% - 0 mm 4.02 m/s, 238° - -
1787971762 28.33° C 12% - 0 mm 2.68 m/s, 197° - -
1787970869 28.89° C 11% - 0 mm 4.92 m/s, 211° - -
1787970571 28.89° C 11% - 0 mm 3.13 m/s, 210° - -
1787969972 29.44° C 10% - 0 mm 5.36 m/s, 201° - -
1787969675 29.44° C 10% - 0 mm 4.02 m/s, 184° - -

* Rain latest hour (hover to see other rain measurements)
** Current wind speed in m/s (hover to see current wind gust speed)